Date,TemperatureHighF,TemperatureAvgF,TemperatureLowF,DewpointHighF,DewpointAvgF,DewpointLowF,HumidityHigh,HumidityAvg,HumidityLow,PressureMaxIn,PressureMinIn,WindSpeedMaxMPH,WindSpeedAvgMPH,GustSpeedMaxMPH,PrecipitationSumIn
2012-12-1,67.8,55.1,44.1,46.0,42.2,37.3,78,63,41,30.36,30.24,8,0,9,0.00
2012-12-2,70.4,58.9,48.9,50.7,45.9,42.3,79,63,44,30.30,30.19,16,1,16,0.00
2012-12-3,72.5,62.0,52.8,50.7,47.7,45.9,78,61,42,30.27,30.16,8,0,13,0.00
2012-12-4,70.1,61.8,52.9,52.2,49.0,46.8,81,64,50,30.24,30.11,14,1,18,0.00
2012-12-5,65.5,55.5,49.1,56.3,41.6,29.3,89,62,31,30.26,30.11,11,2,14,0.00
2012-12-6,52.2,48.2,44.2,44.0,37.5,30.4,82,67,53,30.18,30.08,7,0,11,0.01
2012-12-7,65.0,53.9,45.4,49.7,45.3,40.9,86,73,55,30.09,29.93,7,0,10,0.00
2012-12-8,70.4,60.6,55.1,56.4,51.2,48.4,90,72,50,29.98,29.90,13,1,16,0.01
2012-12-9,73.2,62.2,55.7,57.3,55.1,52.1,98,79,58,30.01,29.84,8,1,13,0.05
2012-12-10,61.6,54.3,40.9,56.9,51.2,36.1,99,90,71,29.89,29.62,17,1,21,1.23
2012-12-11,41.8,35.8,31.6,36.7,28.9,25.1,84,76,65,30.23,29.89,9,1,16,0.05
2012-12-12,46.8,38.1,30.9,30.3,25.8,19.5,84,63,36,30.35,30.24,13,1,13,0.03
2012-12-13,59.5,44.2,34.1,36.3,31.6,26.0,79,62,37,30.39,30.28,6,0,9,0.00
2012-12-14,56.9,46.8,36.8,38.7,34.8,32.1,88,64,43,30.39,30.19,6,0,8,0.00
2012-12-15,59.5,50.7,41.2,47.1,38.5,34.9,86,64,43,30.20,29.95,8,1,14,0.09
2012-12-16,56.6,52.5,47.6,55.9,50.5,46.5,100,93,83,29.99,29.78,7,1,14,0.83
2012-12-17,55.7,52.2,48.0,55.1,50.6,47.0,99,95,84,29.81,29.60,7,0,9,0.15
2012-12-18,58.6,48.7,42.2,48.8,37.6,30.4,99,68,38,29.94,29.66,9,1,13,0.03
2012-12-19,64.5,52.9,43.1,42.6,37.2,31.7,67,56,37,30.07,29.93,7,1,13,0.01
2012-12-20,50.8,46.1,37.5,50.0,39.3,25.2,98,78,58,30.01,29.54,21,2,23,0.00
2012-12-21,43.9,35.4,29.4,27.9,20.7,13.7,76,56,38,30.17,29.76,16,4,25,0.01
2012-12-22,49.4,35.0,24.1,21.6,16.5,13.8,70,48,28,30.34,30.17,6,0,8,0.44
2012-12-23,50.2,39.0,29.1,41.0,27.0,14.7,96,64,35,30.19,30.01,4,0,9,0.33
2012-12-24,47.0,43.9,40.6,46.8,43.3,39.3,100,98,93,30.00,29.83,4,0,9,0.05
2012-12-25,48.2,45.1,42.2,45.2,43.4,42.1,100,94,83,30.05,29.82,8,1,14,0.01
2012-12-26,49.1,42.2,32.7,47.8,38.4,27.8,97,86,70,29.96,29.39,21,5,30,0.01
2012-12-27,34.6,32.7,31.6,29.1,26.8,25.0,87,79,70,30.16,29.97,6,0,11,0.00
2012-12-28,41.2,36.3,31.5,36.0,29.8,25.8,93,77,63,30.15,29.78,7,1,9,0.00
2012-12-29,43.3,36.0,30.6,38.5,32.0,21.0,95,86,67,30.25,29.72,14,1,21,0.00
2012-12-30,44.5,32.7,26.7,26.0,21.5,17.8,74,64,41,30.54,30.26,6,0,10,1.58
2012-12-31,43.2,35.1,27.8,30.3,25.0,20.1,82,67,47,30.41,30.13,6,0,13,0.00